Weather History for Rexburg, ID

Change the Weather History Date:

Thursday, October 16, 2014

  Actual Average Record
Temperature  
Mean Temperature 42 °F 45 °F  
Max Temperature 54 °F 59 °F 68 °F (2004)
Min Temperature 29 °F 31 °F 23 °F (2013)
Degree Days  
Heating Degree Days 23 20  
Month to date heating degree days 244 280  
Since 1 July heating degree days 516 638  
Cooling Degree Days 0 0  
Month to date cooling degree days 0 0  
Year to date cooling degree days 234 208  
Moisture  
Dew Point 27 °F    
Average Humidity 59    
Maximum Humidity 85    
Minimum Humidity 32    
Precipitation  
Precipitation 0.00 in 0.04 in 0.72 in (2006)
Month to date precipitation 0.01 0.58  
Year to date precipitation 14.11 10.46  
Sea Level Pressure  
Sea Level Pressure 30.15 in    
Wind  
Wind Speed 3 mph (ENE)    
Max Wind Speed 12 mph    
Max Gust Speed 16 mph    
Visibility 10 miles    
Events      
T = Trace of Precipitation, MM = Missing Value Source: NWS Daily Summary

Daily Weather History Graph

Daily Weather History Graph

Search for Another Location

Airport:

Trip Planner

Search our weather history database for the weather conditions in past years. The results will help you decide how hot, cold, wet, or windy it might be!

Date:

Astronomy

Oct. 16, 2014 Rise Set
Actual Time 7:42 AM MDT 6:41 PM MDT
Civil Twilight 7:13 AM MDT 7:10 PM MDT
Nautical Twilight 6:40 AM MDT 7:44 PM MDT
Astronomical Twilight 6:07 AM MDT 8:17 PM MDT
Moon 12:44 AM MDT (10/16) 3:06 PM MDT (10/16)
Length of Visible Light 11h 56m
Length of Day
10h 58m
Last Quarter, 41% of the Moon is Illuminated
Oct 16
Last Quarter
Oct 23
New
Oct 30
First Quarter
Nov 6
Full
Nov 14
Last Quarter

Hourly Weather History & Observations

Time (MDT) Temp. Windchill Dew Point Humidity Pressure Visibility Wind Dir Wind Speed Gust Speed Precip Events Conditions
12:53 AM 41.0 °F 34.3 °F 30.0 °F 65% 30.07 in 10.0 mi South 11.5 mph - N/A   Clear
1:53 AM 41.0 °F 36.4 °F 30.0 °F 65% 30.07 in 10.0 mi South 6.9 mph - N/A   Clear
2:53 AM 39.9 °F 34.5 °F 28.9 °F 65% 30.09 in 10.0 mi South 8.1 mph - N/A   Clear
3:53 AM 36.0 °F - 28.0 °F 73% 30.11 in 10.0 mi Calm Calm - N/A   Clear
4:53 AM 32.0 °F 25.6 °F 27.0 °F 82% 30.14 in 10.0 mi ENE 6.9 mph - N/A   Clear
5:53 AM 30.9 °F 25.2 °F 26.1 °F 82% 30.17 in 10.0 mi ENE 5.8 mph - N/A   Clear
6:53 AM 30.0 °F 25.2 °F 24.1 °F 79% 30.19 in 10.0 mi North 4.6 mph - N/A   Clear
7:53 AM 28.9 °F 23.9 °F 24.1 °F 82% 30.20 in 10.0 mi NE 4.6 mph - N/A   Clear
8:53 AM 30.0 °F 24.1 °F 24.1 °F 79% 30.22 in 10.0 mi ENE 5.8 mph - N/A   Clear
9:53 AM 37.0 °F - 28.0 °F 70% 30.22 in 10.0 mi Calm Calm - N/A   Clear
10:53 AM 42.1 °F 39.2 °F 28.0 °F 58% 30.21 in 10.0 mi NE 4.6 mph - N/A   Clear
11:53 AM 46.9 °F - 28.0 °F 48% 30.19 in 10.0 mi NNE 5.8 mph - N/A   Clear
12:53 PM 50.0 °F - 28.0 °F 43% 30.16 in 10.0 mi Variable 3.5 mph - N/A   Clear
1:53 PM 52.0 °F - 27.0 °F 38% 30.13 in 10.0 mi Variable 4.6 mph - N/A   Clear
2:53 PM 52.0 °F - 25.0 °F 35% 30.12 in 10.0 mi North 4.6 mph - N/A   Partly Cloudy
3:53 PM 52.0 °F - 25.0 °F 35% 30.12 in 10.0 mi Variable 3.5 mph - N/A   Mostly Cloudy
4:53 PM 53.1 °F - 24.1 °F 32% 30.12 in 10.0 mi Calm Calm - N/A   Partly Cloudy
5:53 PM 52.0 °F - 25.0 °F 35% 30.13 in 10.0 mi Calm Calm - N/A   Clear
6:53 PM 51.1 °F - 27.0 °F 39% 30.13 in 10.0 mi Calm Calm - N/A   Clear
7:53 PM 48.0 °F - 28.0 °F 46% 30.14 in 10.0 mi Calm Calm - N/A   Overcast
8:53 PM 46.0 °F - 30.9 °F 56% 30.15 in 10.0 mi Calm Calm - N/A   Overcast
9:53 PM 43.0 °F - 30.0 °F 60% 30.14 in 10.0 mi Calm Calm - N/A   Partly Cloudy
10:53 PM 37.0 °F - 28.9 °F 73% 30.14 in 10.0 mi Calm Calm - N/A   Clear
11:53 PM 35.1 °F 32.2 °F 27.0 °F 72% 30.15 in 10.0 mi ENE 3.5 mph - N/A   Clear